Las Vegas, NV

6:59 PM PDT on July 23, 2017 (GMT -0700)
McCarran International

Weather History for KLAS - January, 2013

Change the Weather History Date:

Tuesday, January 15, 2013

  Actual Average Record
Temperature  
Mean Temperature 34 °F 49 °F  
Max Temperature 45 °F 58 °F 73 °F (1945)
Min Temperature 23 °F 39 °F 20 °F (1949)
Degree Days  
Heating Degree Days 31 16  
Month to date heating degree days 357 255  
Since 1 July heating degree days 1030 1102  
Cooling Degree Days 0 0  
Month to date cooling degree days 0 0  
Year to date cooling degree days 0 0  
Moisture  
Dew Point 6 °F    
Average Humidity 31    
Maximum Humidity 39    
Minimum Humidity 22    
Precipitation  
Precipitation 0.00 in 0.02 in 0.21 in (1979)
Month to date precipitation 0.00 0.28  
Year to date precipitation 0.00 0.28  
Snow  
Snow 0.00 in 0.00 in 0.40 in (1960)
Month to date snowfall 0.0 0.0  
Since 1 July snowfall T 0.2  
Snow Depth 0.00 in    
Sea Level Pressure  
Sea Level Pressure 30.49 in    
Wind  
Wind Speed 5 mph (South)    
Max Wind Speed 12 mph    
Max Gust Speed 13 mph    
Visibility 10 miles    
Events      
T = Trace of Precipitation, MM = Missing Value Source: NWS Daily Summary

Daily Weather History Graph

Daily Weather History Graph

Search for Another Location

Airport or City:

Trip Planner

Search our weather history database for the weather conditions in past years. The results will help you decide how hot, cold, wet, or windy it might be!

Date:

Astronomy

Jan. 15, 2013 Rise Set
Actual Time 6:50 AM PST 4:50 PM PST
Civil Twilight 6:22 AM PST 5:18 PM PST
Nautical Twilight 5:51 AM PST 5:49 PM PST
Astronomical Twilight 5:20 AM PST 6:20 PM PST
Moon 9:08 AM PST (1/15) 9:33 PM PST (1/15)
Length of Visible Light 10h 55m
Length of Day
9h 59m
Waxing Crescent, 20% of the Moon is Illuminated
Jan 15
Waxing Crescent
Jan 18
First Quarter
Jan 26
Full
Feb 3
Last Quarter
Feb 9
New

Hourly Weather History & Observations

Time (PST) Temp. Windchill Dew Point Humidity Pressure Visibility Wind Dir Wind Speed Gust Speed Precip Events Conditions
12:56 AM 26.1 °F 16.8 °F 1.0 °F 34% 30.45 in 10.0 mi South 9.2 mph - N/A   Clear
1:56 AM 26.1 °F 18.4 °F 1.0 °F 34% 30.45 in 10.0 mi SSW 6.9 mph - N/A   Clear
2:56 AM 24.1 °F 15.2 °F 1.9 °F 38% 30.46 in 10.0 mi SSW 8.1 mph - N/A   Clear
3:56 AM 24.1 °F 15.2 °F 1.9 °F 38% 30.48 in 10.0 mi SSW 8.1 mph - N/A   Clear
4:56 AM 23.0 °F 13.9 °F 1.9 °F 40% 30.48 in 10.0 mi SSW 8.1 mph - N/A   Clear
5:56 AM 24.1 °F 18.2 °F 1.0 °F 37% 30.48 in 10.0 mi SSW 4.6 mph - N/A   Clear
6:56 AM 25.0 °F 15.5 °F 1.9 °F 37% 30.51 in 10.0 mi SSW 9.2 mph - N/A   Clear
7:56 AM 27.0 °F 18.0 °F 3.0 °F 36% 30.55 in 10.0 mi SSW 9.2 mph - N/A   Partly Cloudy
8:56 AM 30.0 °F 24.1 °F 1.9 °F 30% 30.55 in 10.0 mi SW 5.8 mph - N/A   Scattered Clouds
9:56 AM 35.1 °F 32.2 °F 1.9 °F 25% 30.56 in 10.0 mi South 3.5 mph - N/A   Partly Cloudy
10:56 AM 36.0 °F 32.1 °F 3.0 °F 25% 30.53 in 10.0 mi SSE 4.6 mph - N/A   Partly Cloudy
11:56 AM 37.9 °F 35.5 °F 5.0 °F 25% 30.49 in 10.0 mi Variable 3.5 mph - N/A   Partly Cloudy
12:56 PM 39.9 °F - 6.1 °F 25% 30.46 in 10.0 mi Calm Calm - N/A   Partly Cloudy
1:56 PM 43.0 °F 40.3 °F 7.0 °F 23% 30.44 in 10.0 mi SE 4.6 mph - N/A   Partly Cloudy
3:56 PM 44.1 °F 41.5 °F 9.0 °F 24% 30.45 in 10.0 mi SE 4.6 mph - N/A   Partly Cloudy
4:56 PM 42.1 °F 38.4 °F 10.0 °F 27% 30.46 in 10.0 mi SE 5.8 mph - N/A   Partly Cloudy
5:56 PM 39.9 °F 36.7 °F 10.0 °F 29% 30.48 in 10.0 mi SSE 4.6 mph - N/A   Partly Cloudy
6:56 PM 39.9 °F - 9.0 °F 28% 30.50 in 10.0 mi Calm Calm - N/A   Clear
7:56 PM 39.0 °F - 10.9 °F 32% 30.51 in 10.0 mi Calm Calm - N/A   Clear
8:56 PM 37.9 °F - 10.9 °F 33% 30.50 in 10.0 mi Calm Calm - N/A   Clear
9:56 PM 37.0 °F 31.0 °F 12.0 °F 36% 30.51 in 10.0 mi SSW 8.1 mph - N/A   Partly Cloudy
10:56 PM 35.1 °F 30.1 °F 10.9 °F 37% 30.50 in 10.0 mi WSW 5.8 mph - N/A   Partly Cloudy
11:56 PM 34.0 °F 26.6 °F 12.0 °F 40% 30.50 in 10.0 mi South 9.2 mph - N/A   Partly Cloudy